Lid_Strength_Index
-0 0 0 0 1 1 1 1 0 0 -0 -0 -0 -1 -0 -0 1 3 6 4 2 -1 -0 4 5 4 5 4 4 5 10 11 11 11 10 9 10 8 8 11 9 8 9 9 8
0 0 1 1 1 1 1 1 0 0 -0 -0 -0 -1 -0 0 3 6 3 0 -1 -1 5 6 6 6 6 6 6 8 10 10 9 9 10 9 10 10 10 10 10 9 9 8 9
0 1 1 1 1 1 1 1 0 0 0 0 -0 -1 0 1 4 6 1 -0 -0 1 5 5 5 5 7 7 8 8 10 9 9 8 9 10 10 10 11 11 12 11 11 10 10
1 1 2 2 2 2 1 1 0 0 0 0 -0 -1 1 2 8 5 1 -0 -0 3 5 6 6 7 8 9 7 11 8 8 8 9 9 10 10 11 10 11 9 10 10 10 11
1 2 2 2 2 2 2 1 1 1 1 0 -0 -0 1 5 6 5 1 2 4 5 6 6 8 8 9 9 9 10 9 9 9 10 10 10 11 12 11 10 10 10 10 11 11
2 2 2 2 2 2 2 1 1 1 1 -0 -1 1 2 7 4 3 5 5 6 6 6 7 8 7 9 9 10 10 10 10 10 10 10 11 12 11 10 10 10 10 11 11 11
2 2 3 2 3 3 2 1 1 1 1 0 0 2 3 6 4 3 4 6 6 6 6 7 7 8 8 9 9 10 12 11 11 10 11 11 12 12 10 10 11 11 12 12 12
2 3 3 3 3 3 2 2 1 1 1 0 1 2 5 3 3 3 4 5 5 6 6 7 7 8 9 9 10 12 12 14 11 11 11 12 15 11 10 11 11 12 13 12 12
2 3 3 3 3 3 2 2 1 1 1 1 2 4 6 3 4 3 4 6 6 6 7 7 7 9 9 11 13 12 16 15 13 11 12 12 14 11 10 11 12 14 14 14 13
2 3 3 3 3 3 2 1 1 2 2 4 4 5 5 5 4 4 5 6 7 7 7 8 9 11 11 13 17 17 17 15 15 13 13 13 13 12 12 12 13 15 15 15 15
3 3 3 3 3 2 2 3 6 5 6 7 7 7 6 4 4 5 6 7 6 8 10 8 12 13 12 13 14 14 15 15 13 12 15 14 14 14 13 13 15 16 16 16 16
3 3 3 3 3 2 3 6 7 6 9 6 6 6 5 5 7 7 6 9 8 10 9 10 12 11 11 12 13 14 15 16 14 12 14 15 15 13 14 14 14 16 16 17 16
3 3 3 3 3 3 6 6 4 4 9 7 6 6 6 6 8 8 7 8 10 10 11 13 11 11 12 13 14 15 16 16 16 14 14 15 17 16 16 15 15 16 16 16 17
3 3 3 4 4 5 6 4 3 4 11 9 9 7 7 7 9 7 7 9 9 10 12 13 12 12 13 13 14 16 15 15 16 18 20 16 22 18 17 17 16 16 18 18 17
3 3 4 4 6 6 5 4 4 6 17 9 8 6 7 9 8 8 8 9 11 10 12 13 14 14 14 14 13 15 15 16 16 18 19 19 21 19 17 18 18 18 18 18 17
3 4 5 4 5 4 4 5 6 11 16 10 8 9 9 9 9 8 8 9 9 12 12 12 12 13 14 12 13 14 16 16 16 18 23 20 20 20 18 16 18 18 18 17 17
3 4 5 5 7 4 4 5 11 15 9 11 10 9 10 10 10 10 10 12 13 14 14 13 13 13 13 15 14 15 18 22 23 23 23 20 22 19 19 18 18 18 18 18 18
3 5 4 4 4 4 4 10 15 11 10 10 10 10 11 10 10 11 12 13 11 12 15 16 17 14 13 15 18 18 19 23 27 25 23 21 24 20 18 17 17 17 17 17 17
5 4 4 4 4 4 9 14 14 11 9 10 11 12 11 11 12 13 13 13 12 12 16 15 16 16 16 15 16 18 21 19 22 28 28 24 20 19 18 18 18 18 18 18 17
5 5 5 4 4 6 12 13 11 9 10 10 12 10 12 11 13 13 12 12 13 12 13 15 18 16 18 18 18 20 18 23 23 30 30 23 22 21 21 19 19 19 19 18 17
6 8 6 4 4 9 15 13 10 8 9 10 11 11 11 11 11 12 12 12 12 14 14 16 17 19 18 20 20 22 22 22 21 22 27 28 24 20 19 18 19 19 18 18 17
6 9 5 4 10 10 12 11 9 10 9 10 11 10 11 10 11 12 12 11 13 14 17 16 17 20 19 20 19 20 20 21 25 25 24 25 24 17 17 17 18 19 17 17 16
9 7 5 5 13 12 10 10 9 10 10 11 11 10 10 11 13 12 11 14 13 15 16 17 19 21 20 22 20 22 21 21 21 22 25 24 24 17 17 18 18 18 18 17 16
7 12 10 10 10 11 11 11 12 10 10 10 10 10 11 12 11 13 13 15 14 15 15 14 19 19 18 18 20 23 22 21 21 24 23 23 21 18 17 17 18 18 18 17 16
7 10 9 13 12 11 10 11 11 11 10 10 11 11 11 13 13 13 12 17 16 16 17 18 21 20 19 20 20 20 21 22 23 22 23 21 21 18 16 18 19 18 17 17 16
8 9 10 10 10 11 11 12 11 10 9 11 11 10 11 13 11 13 12 13 17 18 19 18 21 20 22 20 21 23 22 21 20 20 21 20 21 15 15 17 19 17 17 17 17
5 5 7 9 10 10 11 11 11 9 9 8 8 10 12 11 11 14 13 13 14 18 19 20 21 23 24 22 22 26 22 21 20 19 19 22 19 16 18 19 18 18 17 17 17